User: anonymous
Location: Unspecified
(0.0000°N, 0.0000°E)
Time: 12:37:55
(UTC+02:00)
Language:

Iridium 39 - Orbit

View from above orbital plane
View from above orbital plane
View from above satellite
View from above satellite

Ground track
Ground track

The orbit data is extracted from the following two-line orbital elements,

1 25042U 97069D   14205.33500350  .00000276  00000-0  91553-4 0  8996
2 25042 086.3990 104.7749 0002256 092.8549 267.2905 14.34218216874545
Epoch (UTC): 24 July 2014 08:02:24
Eccentricity: 0.0002256
inclination: 86.3990°
perigee height: 776 km
apogee height: 779 km
right ascension of ascending node: 104.7749°
argument of perigee: 92.8549°
revolutions per day: 14.34218216
mean anomaly at epoch: 267.2905°
orbit number at epoch: 87454

The dashed part of the orbit path shows where the satellite is in the earth's shadow,  

DLR